Location: Presov
(49.0000°N, 21.2500°E)
Time: 13:47:49
(UTC+02:00)

Explorer 7 - Visible Passes

Search period start: 18 April 2021 00:00
Search period end: 28 April 2021 00:00
Orbit: 484 x 677 km, 50.3° (Epoch: 17 April)

Date Brightness Start Highest point End Pass type
(mag) Time Alt. Az. Time Alt. Az. Time Alt. Az.
18 Apr 8.7 03:32:59 21° S 03:32:59 21° S 03:34:58 10° SSE visible
18 Apr 7.8 20:50:03 10° SSW 20:53:31 27° SE 20:55:38 18° E visible
18 Apr 7.9 22:29:27 10° WSW 22:32:01 37° WSW 22:32:01 37° WSW visible
19 Apr 7.3 20:54:01 10° SW 20:57:48 38° SSE 21:01:12 13° E visible
19 Apr 7.1 22:33:54 10° WSW 22:37:34 67° W 22:37:34 67° W visible
20 Apr 6.9 20:58:11 10° SW 21:02:08 53° SSE 21:06:14 11° ENE visible
20 Apr 7.0 22:38:24 10° W 22:42:33 77° NNW 22:42:33 77° NNW visible
21 Apr 6.8 21:02:30 10° WSW 21:06:32 70° SSE 21:10:51 10° ENE visible
21 Apr 7.0 22:42:54 10° W 22:47:07 74° N 22:47:11 73° N visible
22 Apr 9.7 00:23:24 10° WNW 00:23:29 11° WNW 00:23:29 11° WNW visible
22 Apr 6.8 21:06:55 10° WSW 21:10:58 86° SSE 21:15:18 10° ENE visible
22 Apr 7.0 22:47:24 10° W 22:51:35 75° N 22:51:35 75° N visible
23 Apr 9.7 00:27:52 10° WNW 00:27:52 10° WNW 00:27:52 10° WNW visible
23 Apr 6.9 21:11:22 10° W 21:15:27 82° N 21:19:35 11° ENE visible
23 Apr 7.0 22:51:53 10° WNW 22:55:51 75° NW 22:55:51 75° NW visible
24 Apr 7.0 21:15:52 10° W 21:19:57 75° N 21:23:45 13° E visible
24 Apr 7.1 22:56:22 10° WNW 23:00:02 67° W 23:00:02 67° W visible
25 Apr 7.0 21:20:22 10° W 21:24:27 73° N 21:27:54 16° E visible
25 Apr 7.4 23:00:50 10° WNW 23:04:10 53° W 23:04:10 53° W visible
26 Apr 7.0 21:24:52 10° W 21:28:57 75° N 21:31:59 19° E visible
26 Apr 7.8 23:05:18 10° WNW 23:08:16 41° W 23:08:16 41° W visible
27 Apr 6.9 21:29:20 10° WNW 21:33:26 83° N 21:36:04 23° E visible
27 Apr 8.2 23:09:49 10° W 23:12:20 30° WSW 23:12:20 30° WSW visible
